Погода в Бланкенберге

Бельгия     51°18′49″N   3°08′04″E
темп.,
°C
ветер,
м/с
пор.,
м/с
влажн.,
%
обл.,
%
осадки,
мм/ч
давл.,
гПа
погр.,
м
19 апреля, пн
пн1923:00+6с33905 0.0 102441
02:00+6ссз33905 0.0 102333
05:00+6ссз33905 0.0 102236
08:00+7ссз34875 0.0 1022100
11:00+11ссз45665 0.0 1022589
14:00+11ссз556494 0.0 1021614
17:00+11ссз44685 0.0 1020582
20:00+9ссз23835 0.0 101991
20 апреля, вт
вт2023:00+7с229321 0.0 101916
02:00+6ссз119450 0.0 101910
05:00+6з11945 0.0 101810
08:00+7зюз11935 0.0 101933
11:00+12ссз21739 0.0 1019637
14:00+14с436257 0.1 10181127
17:00+12с457192 0.0 1018311
20:00+10с478096 0.0 1018216
21 апреля, ср
ср2123:00+10ссв477492 0.0 1019180
02:00+9с367795 0.0 1019169
05:00+8с4788100 0.0 1019144
08:00+9ссв4885100 0.0 1019285
11:00+11ссв78725 0.0 1021671
14:00+11ссв810615 0.0 1022754
17:00+10ссв810595 0.0 1022692
20:00+7ссв811705 0.0 1022607
22 апреля, чт
чт2223:00+5св6106822 0.0 1024402
02:00+3всв367642 0.0 1024135
05:00+2всв34815 0.0 102592
08:00+3всв2576100 0.0 1026156
11:00+8св445760 0.0 1027983
14:00+10ссв555499 0.0 10271000
17:00+9ссв65585 0.0 1027783
20:00+7ссв57725 0.0 1027343
23 апреля, пт
пт2323:00+4св47845 0.0 1027127
02:00+3в35875 0.0 102792
05:00+2в35930 0.0 102679
08:00+3в35840 0.0 1026138
11:00+10в565195 0.0 1026638
14:00+14в564124 0.0 10241087
17:00+15всв564013 0.0 10221257
20:00+10св5964100 0.0 1022207